Content
SEND FEEDBACK

Daily
Averages
Monthly
Summary
United States of America

CUMMING, GEORGIA


Home > North America > United States > Georgia
Elevation: 0 feet     Latitude: 34 13N     Longitude: 084 08W

WEATHER
 
SELECT A DAY
Number of Records: 204,358;   Date Range: 7/1/96 - 9/18/14
 
SHARE

PRINT THIS DATA

[ ← Previous Day ]
WEATHER ALMANAC - JANUARY 31, 2013
[ Next Day → ]
[ °C ]   °F
Weather ElementAverageHighLow
Temperature39.2 °F46 °F (3:53 pm)33.1 °F (7:53 am)
Dewpoint23 °F30 °F (12:53 am)18 °F (4:53 pm)
Humidity53.2 %67 % (1:53 am)33 % (4:53 pm)
Barometer30.02 in30.14 in (9:53 pm)29.77 in (12:53 am)
Wind Speed14.8 mph24.2 mph (12:53 am)
Wind Gust38 mph (12:53 am)
Weather ElementAverage
Visibility10 mi
Wind DirectionW (270.9 °)

Weather ElementTotal
Precipitation---
Heating Degree Days25.5 (Base 65)
Averaged from 23 records on January 31, 2013
WEATHER CONDITIONS BREAKOUT
WIND DIRECTION BREAKOUT
WEATHER BY HOUR - JANUARY 31, 2013
[ °C ]   °F
Local TimeTemperatureDewpointHumidityBarometerVisibilityWind DirectionWind SpeedGust SpeedPrecipitationEventsConditions
12:53 AM41.0 °F30.0 °F65 %29.77 in10.0 miWest (280°)24.2 mph38.0 mph0.00 inOvercast
1:53 AM39.0 °F28.9 °F67 %29.81 in10.0 miWest (270°)15.0 mph21.9 mphScattered Clouds
2:53 AM37.0 °F24.1 °F59 %29.85 in10.0 miWest (270°)19.6 mph29.9 mphMostly Cloudy
3:53 AM36.0 °F21.9 °F57 %29.90 in10.0 miWest (280°)17.3 mph28.8 mphOvercast
4:53 AM35.1 °F21.9 °F59 %29.91 in10.0 miWest (270°)12.7 mph29.9 mphOvercast
5:53 AM35.1 °F24.1 °F64 %29.95 in10.0 miWest (270°)9.2 mph19.6 mphOvercast
6:53 AM34.0 °F21.0 °F59 %29.98 in10.0 miWest (270°)15.0 mphClear
7:53 AM33.1 °F21.0 °F61 %29.99 in10.0 miWest (270°)12.7 mph20.7 mphClear
8:53 AM35.1 °F23.0 °F61 %30.02 in10.0 miWest (280°)16.1 mph24.2 mphClear
9:53 AM35.1 °F21.9 °F59 %30.04 in10.0 miWest (270°)17.3 mph23.0 mphClear
10:53 AM37.9 °F24.1 °F57 %30.06 in10.0 miWest (280°)13.8 mph23.0 mphClear
11:53 AM39.9 °F24.1 °F53 %30.06 in10.0 miWest (280°)15.0 mph23.0 mphClear
12:53 PM42.1 °F24.1 °F49 %30.07 in10.0 miWest (280°)17.3 mph27.6 mphClear
1:53 PM43.0 °F21.9 °F43 %30.06 in10.0 miWest (280°)19.6 mph25.3 mphClear
2:53 PM45.0 °F21.0 °F39 %30.07 in10.0 miWest (280°)16.1 mph28.8 mphClear
3:53 PM46.0 °F19.0 °F34 %30.08 in10.0 miWest (280°)13.8 mph19.6 mphClear
4:53 PM46.0 °F18.0 °F33 %30.08 in10.0 miWest (280°)18.4 mph27.6 mphClear
5:53 PM44.1 °F19.0 °F37 %30.08 in10.0 miWest (280°)9.2 mph17.3 mphClear
7:53 PM41.0 °F23.0 °F49 %30.12 in10.0 miWest (260°)11.5 mphClear
8:53 PM39.9 °F23.0 °F51 %30.13 in10.0 miWSW (250°)12.7 mphClear
9:53 PM39.0 °F24.1 °F55 %30.14 in10.0 miWest (260°)9.2 mphClear
10:53 PM39.0 °F24.1 °F55 %30.13 in10.0 miWSW (240°)12.7 mphClear
11:53 PM39.0 °F25.0 °F57 %30.14 in10.0 miWSW (250°)12.7 mphClear
Hourly data recorded from KGVL, located miles away from Cumming, Georgia







STORIES FROM OUR PARTNERS